• In Moldova, Republic
  • List of Countries
  • For 7 days
  • Water Temperature
  • Satellite Maps
  • Weather Map
  • Weather Widgets
  • user-avatar
    Login

    Hourly Weather Innsbruck

    Today, 24 February, Friday

    Time Temperature Precipitation Wind Pressure Humidity
    00:00 -5°C° 0.1 mm 2 mps 586 mmHg 94%
    01:00 -4°C° 0.1 mm 2 mps 586 mmHg 94%
    02:00 -4°C° 0.4 mm 2 mps 586 mmHg 95%
    03:00 -4°C° 0.4 mm 2 mps 586 mmHg 95%
    04:00 -5°C° 0.4 mm 2 mps 586 mmHg 96%
    05:00 -5°C° 1.1 mm 2 mps 586 mmHg 96%
    06:00 -3°C° 1.1 mm 1 mps 586 mmHg 97%
    07:00 -3°C° 1.1 mm 1 mps 587 mmHg 97%
    08:00 -3°C° 0.9 mm 1 mps 587 mmHg 96%
    09:00 -5°C° 0.9 mm 2 mps 587 mmHg 96%
    10:00 -5°C° 0.9 mm 2 mps 588 mmHg 95%
    11:00 -5°C° 0.6 mm 2 mps 588 mmHg 95%
    12:00 -5°C° 0.6 mm 2 mps 588 mmHg 94%
    13:00 -5°C° 0.6 mm 2 mps 588 mmHg 94%
    14:00 -5°C° 0.5 mm 2 mps 588 mmHg 94%
    15:00 -5°C° 0.5 mm 2 mps 588 mmHg 94%
    16:00 -6°C° 0.5 mm 2 mps 588 mmHg 95%
    17:00 -6°C° 0.4 mm 2 mps 588 mmHg 95%
    18:00 -7°C° 0.4 mm 2 mps 588 mmHg 96%
    19:00 -8°C° 0.4 mm 2 mps 589 mmHg 97%
    20:00 -8°C° 0.4 mm 2 mps 589 mmHg 97%
    21:00 -8°C° 0.4 mm 2 mps 590 mmHg 97%
    22:00 -9°C° 0.4 mm 2 mps 590 mmHg 97%
    23:00 -9°C° 0.1 mm 2 mps 590 mmHg 97%

    Tomorrow, 25 February, Saturday

    Time Temperature Precipitation Wind Pressure Humidity
    00:00 -9°C° 0.1 mm 1 mps 590 mmHg 97%
    01:00 -10°C° 0.1 mm 1 mps 590 mmHg 97%
    02:00 -11°C° 0 mm 1 mps 590 mmHg 97%
    03:00 -12°C° 0 mm 1 mps 590 mmHg 96%
    04:00 -13°C° 0 mm 1 mps 589 mmHg 96%
    05:00 -14°C° 0 mm 1 mps 589 mmHg 96%
    06:00 -15°C° 0 mm 1 mps 589 mmHg 95%
    07:00 -15°C° 0 mm 1 mps 589 mmHg 94%
    08:00 -12°C° 0 mm 1 mps 591 mmHg 92%
    09:00 -9°C° 0 mm 1 mps 592 mmHg 89%
    10:00 -7°C° 0 mm 1 mps 594 mmHg 87%
    11:00 -4°C° 0 mm 1 mps 594 mmHg 85%
    12:00 -3°C° 0 mm 1 mps 595 mmHg 84%
    13:00 -2°C° 0 mm 1 mps 595 mmHg 83%
    14:00 -2°C° 0 mm 1 mps 595 mmHg 84%
    15:00 -3°C° 0 mm 0 mps 595 mmHg 86%
    16:00 -3°C° 0 mm 0 mps 595 mmHg 88%
    17:00 -7°C° 0 mm 0 mps 593 mmHg 91%
    18:00 -11°C° 0 mm 0 mps 590 mmHg 93%
    19:00 -15°C° 0 mm 1 mps 588 mmHg 95%
    20:00 -13°C° 0 mm 1 mps 590 mmHg 93%
    21:00 -11°C° 0 mm 1 mps 591 mmHg 90%
    22:00 -10°C° 0 mm 1 mps 592 mmHg 87%
    23:00 -10°C° 0 mm 2 mps 592 mmHg 86%

    Day after tomorrow, 26 February, Sunday

    Time Temperature Precipitation Wind Pressure Humidity
    00:00 -10°C° 0 mm 2 mps 592 mmHg 85%
    01:00 -9°C° 0 mm 2 mps 593 mmHg 85%
    02:00 -9°C° 0 mm 2 mps 592 mmHg 85%
    03:00 -9°C° 0 mm 2 mps 592 mmHg 85%
    04:00 -9°C° 0 mm 2 mps 592 mmHg 85%
    05:00 -9°C° 0 mm 2 mps 592 mmHg 84%
    06:00 -8°C° 0 mm 2 mps 592 mmHg 83%
    07:00 -8°C° 0 mm 2 mps 592 mmHg 83%
    08:00 -4°C° 0 mm 1 mps 593 mmHg 85%
    09:00 -2°C° 0 mm 1 mps 594 mmHg 87%
    10:00 -1°C° 0 mm 0 mps 595 mmHg 89%
    11:00 0°C° 0 mm 0 mps 595 mmHg 89%
    12:00 +1°C° 0 mm 0 mps 595 mmHg 89%
    13:00 +1°C° 0 mm 0 mps 595 mmHg 90%
    14:00 +1°C° 0 mm 0 mps 594 mmHg 91%
    15:00 +2°C° 0 mm 1 mps 594 mmHg 92%
    16:00 +2°C° 0 mm 1 mps 594 mmHg 93%
    17:00 0°C° 0 mm 1 mps 593 mmHg 91%
    18:00 -2°C° 0 mm 0 mps 592 mmHg 89%
    19:00 -4°C° 0 mm 0 mps 591 mmHg 88%
    20:00 -5°C° 0 mm 0 mps 591 mmHg 87%
    21:00 -5°C° 0 mm 0 mps 591 mmHg 87%
    22:00 -6°C° 0 mm 0 mps 590 mmHg 86%
    23:00 -6°C° 0 mm 1 mps 590 mmHg 86%

    27 February, Monday

    Time Temperature Precipitation Wind Pressure Humidity
    00:00 -7°C° 0 mm 1 mps 590 mmHg 87%
    01:00 -7°C° 0 mm 1 mps 589 mmHg 87%
    02:00 -7°C° 0 mm 1 mps 589 mmHg 88%
    03:00 -6°C° 0 mm 1 mps 590 mmHg 88%
    04:00 -6°C° 0 mm 1 mps 590 mmHg 89%
    05:00 -4°C° 0 mm 1 mps 590 mmHg 89%
    06:00 -4°C° 0 mm 1 mps 590 mmHg 90%
    07:00 -6°C° 0 mm 2 mps 590 mmHg 90%
    08:00 -2°C° 0 mm 1 mps 590 mmHg 90%
    09:00 -1°C° 0 mm 1 mps 591 mmHg 91%
    10:00 +1°C° 0 mm 1 mps 591 mmHg 91%
    11:00 +1°C° 0 mm 1 mps 591 mmHg 91%
    12:00 +2°C° 0 mm 1 mps 591 mmHg 90%
    13:00 +1°C° 0 mm 2 mps 590 mmHg 89%
    14:00 +1°C° 0 mm 2 mps 590 mmHg 90%
    15:00 +1°C° 0 mm 2 mps 589 mmHg 91%
    16:00 +1°C° 0 mm 2 mps 589 mmHg 91%
    17:00 -2°C° 0 mm 2 mps 588 mmHg 93%
    18:00 -3°C° 0 mm 2 mps 587 mmHg 94%
    19:00 -5°C° 0 mm 2 mps 587 mmHg 95%
    20:00 -6°C° 0 mm 3 mps 586 mmHg 95%
    21:00 -6°C° 0 mm 3 mps 586 mmHg 94%
    22:00 -6°C° 0 mm 3 mps 586 mmHg 94%
    23:00 -6°C° 0 mm 3 mps 586 mmHg 94%

    28 February, Tuesday

    Time Temperature Precipitation Wind Pressure Humidity
    00:00 -6°C° 0 mm 2 mps 586 mmHg 95%
    01:00 -6°C° 0 mm 2 mps 585 mmHg 95%
    02:00 -6°C° 0.4 mm 2 mps 585 mmHg 95%
    03:00 -6°C° 0.4 mm 2 mps 585 mmHg 95%
    04:00 -5°C° 0.4 mm 2 mps 585 mmHg 96%
    05:00 -5°C° 0.9 mm 2 mps 585 mmHg 96%
    06:00 -3°C° 0.9 mm 1 mps 585 mmHg 96%
    07:00 -3°C° 0.9 mm 1 mps 585 mmHg 96%
    08:00 -4°C° 0.3 mm 2 mps 585 mmHg 95%
    09:00 -4°C° 0.3 mm 2 mps 585 mmHg 95%
    10:00 -3°C° 0.3 mm 2 mps 585 mmHg 94%
    11:00 -2°C° 0.3 mm 2 mps 585 mmHg 93%
    12:00 -2°C° 0.3 mm 2 mps 585 mmHg 92%
    13:00 -1°C° 0.3 mm 2 mps 584 mmHg 91%
    14:00 -1°C° 0.4 mm 2 mps 584 mmHg 91%
    15:00 -1°C° 0.4 mm 2 mps 583 mmHg 91%
    16:00 -1°C° 0.4 mm 3 mps 583 mmHg 92%
    17:00 -2°C° 0.6 mm 3 mps 583 mmHg 93%
    18:00 -4°C° 0.6 mm 3 mps 583 mmHg 95%
    19:00 -6°C° 0.6 mm 3 mps 583 mmHg 96%
    20:00 -5°C° 1.6 mm 2 mps 584 mmHg 96%
    21:00 -5°C° 1.6 mm 2 mps 584 mmHg 97%
    22:00 -6°C° 1.6 mm 2 mps 585 mmHg 97%
    23:00 -6°C° 0.6 mm 2 mps 585 mmHg 97%

    1 March, Wednesday

    Time Temperature Precipitation Wind Pressure Humidity
    00:00 -6°C° 0.6 mm 1 mps 585 mmHg 97%
    01:00 -7°C° 0.6 mm 1 mps 585 mmHg 97%
    02:00 -8°C° 0 mm 1 mps 585 mmHg 97%
    03:00 -9°C° 0 mm 1 mps 585 mmHg 96%
    04:00 -10°C° 0 mm 1 mps 584 mmHg 96%
    05:00 -10°C° 0 mm 1 mps 585 mmHg 96%
    06:00 -10°C° 0 mm 1 mps 585 mmHg 95%
    07:00 -10°C° 0 mm 1 mps 585 mmHg 95%
    08:00 -8°C° 0.1 mm 1 mps 587 mmHg 93%
    09:00 -4°C° 0.1 mm 1 mps 588 mmHg 92%
    10:00 -2°C° 0.1 mm 1 mps 590 mmHg 91%
    11:00 -1°C° 0.2 mm 1 mps 590 mmHg 91%
    12:00 0°C° 0.2 mm 1 mps 591 mmHg 92%
    13:00 0°C° 0.2 mm 1 mps 591 mmHg 92%
    14:00 +1°C° 0.3 mm 1 mps 591 mmHg 93%
    15:00 +1°C° 0.3 mm 1 mps 592 mmHg 94%
    16:00 +1°C° 0.3 mm 1 mps 592 mmHg 94%
    17:00 0°C° 0.2 mm 1 mps 592 mmHg 95%
    18:00 -1°C° 0.2 mm 1 mps 591 mmHg 95%
    19:00 -2°C° 0.2 mm 1 mps 591 mmHg 96%
    20:00 -3°C° 0 mm 1 mps 591 mmHg 95%
    21:00 -3°C° 0 mm 1 mps 591 mmHg 94%
    22:00 -6°C° 0 mm 2 mps 591 mmHg 94%
    23:00 -6°C° 0 mm 2 mps 591 mmHg 94%
    Show more